Location: Beaver Brook Station
(42.3793°N, 71.2203°W)
Time: 02:05:22
(UTC+00:00)

Cosmos 2263 Rocket - Pass Details

Date: 29 October 2020
Orbit: 822 x 850 km, 71.0° (Epoch: 05 December)

Event Time Altitude Azimuth Distance (km) Brightness Sun altitude
Rises 23:43:39 0° 341° (NNW) 3,420 5.6 -23.1°
Reaches altitude 10° 23:46:17 10° 349° (N) 2,483 4.8 -23.6°
Enters shadow 23:50:26 35° 30° (NNE) 1,340 3.0 -24.3°
